Regional Weather Roundup
Issued by NWS Wakefield, VA

Home | Current Version | Previous Version | Graphics & Text | Print | Product List | Glossary On
Versions: 1 2 3 4 5 6 7 8 9 10 11 12 13 14 15 16 17 18 19 20 21 22 23 24 25 26 27 28 29 30 31 32 33 34 35 36 37 38 39 40 41 42 43 44 45 46 47 48 49 50
000
ASUS41 KAKQ 281810
RWRAKQ

REGIONAL WEATHER ROUNDUP
NATIONAL WEATHER SERVICE WAKEFIELD VA
100 PM EST SUN DEC 28 2014

Note: "fair" indicates few or no clouds below 12,000 feet with no
significant weather and/or obstructions to visibility. * = Denotes
station may not report precipitation (e.g., rain,snow,etc.),
thunder or fog.

VAZ042-051-052>054-056-281900-
NORTHERN VIRGINIA

CITY           SKY/WX    TMP DP  RH WIND       PRES   REMARKS
WASH NATIONAL  CLOUDY    57  40  52 S6        29.95F
DULLES         CLOUDY    56  41  57 CALM      29.95F
FORT BELVOIR   PTSUNNY   59  40  49 NW2       29.94F
QUANTICO       CLOUDY    51  39  63 SW6       29.96F
FREDERICKSBRG* CLOUDY    58  41  51 CALM      29.95S
STAFFORD*      CLOUDY    56  39  52 CALM      30.00S
WARRENTON      DRIZZLE   56  49  77 CALM      29.95S
CULPEPER*      LGT RAIN  55  45  67 CALM      29.96S
MANASSAS*      CLOUDY    57  41  54 CALM      29.95F
LEESBURG*      CLOUDY    57  46  67 N7        29.95F
WINCHESTER     CLOUDY    57  36  44 S3        29.94F
FRONT ROYAL*   CLOUDY    55  37  50 CALM      29.94R
LURAY*         RAIN      55  46  71 CALM      29.95R
$$

VAZ048-049-060>072-079>083-281900-
CENTRAL AND SOUTH CENTRAL VIRGINIA

CITY           SKY/WX    TMP DP  RH WIND       PRES   REMARKS
RICHMOND       CLOUDY    63  46  54 SW10      29.95F
CHESTERFIELD*  CLOUDY    61  41  48 SW13      29.97F
PETERSBURG*    CLOUDY    62  49  63 SW8       29.97F
HANOVER        CLOUDY    62  44  51 VRB7      29.96F
TAPPAHANNOCK*  CLOUDY    62  38  41 SW5       29.96F
QUINTON*       CLOUDY    60  47  62 W5        29.95F
CHARLOTTSVILLE CLOUDY    57  40  52 S3        29.93F
GORDONSVILLE*  CLOUDY    55  40  56 SW3       29.94F
ORANGE*        CLOUDY    55  41  58 CALM      29.96S
LOUISA*        CLOUDY    59  43  55 SW3       29.93F
BUMPASS*       CLOUDY    58  41  52 SW7       29.95F
FARMVILLE*     CLOUDY    63  45  51 SW7       29.95F
CREWE*         MOCLDY    59  46  60 SW5       29.97F
FORT PICKETT*  MOCLDY    59  48  67 SW10      29.97F
CHASE CITY*    MOCLDY    61  52  72 SW3       29.98F
CLARKSVILLE*   MOCLDY    61  52  72 W6        29.98F
SOUTH HILL*    CLOUDY    61  51  71 SW9G18    30.04F
LAWRENCEVILLE* MOCLDY    61  53  74 SW8       29.98F
EMPORIA*       CLOUDY    61  54  77 SW10      30.00F
$$

VAZ088>098-281900-
SOUTHEAST VIRGINIA

CITY           SKY/WX    TMP DP  RH WIND       PRES   REMARKS
NORFOLK        CLOUDY    64  51  62 W13G21    29.97F
VIRGINIA BEACH PTSUNNY   67  52  58 SW15      29.97F
NORFOLK NAVAL  CLOUDY    67  53  61 W15G21    29.99F
WEST POINT*    CLOUDY    64  47  54 SW9       29.97F
SALUDA*        MOCLDY    61  48  63 SW10G16   29.95F
NEWPORT NEWS   CLOUDY    67  52  58 SW16G22   29.97F
LANGLEY AFB    CLOUDY    65  54  67 W16       29.97F
FORT EUSTIS    CLOUDY    64  64  99 SW9       29.95F
WILLIAMSBURG*  CLOUDY    66  55  68 W7        29.97F
HR EXEC AP*    CLOUDY    64  54  68 SW13G21   30.00F
FRANKLIN*      CLOUDY    64  54  68 SW9G16    29.99F
WAKEFIELD      CLOUDY    64  52  64 SW7G21    29.98F
$$

VAZ020-022-025-037-045-281900-
WEST CENTRAL AND SOUTHWEST VIRGINIA

CITY           SKY/WX    TMP DP  RH WIND       PRES   REMARKS
STAUNTON*      LGT RAIN  57  46  68 SW3       29.95F
WAYNESBORO*    CLOUDY    56  45  67 SW3       29.95F
HOT SPRINGS VA FOG       44  44 100 W12G20    29.94F VSB 1/4
LYNCHBURG      LGT RAIN  57  42  57 SW6       29.98F
DANVILLE       CLOUDY    60  48  64 SW12      29.99F
SOUTH BOSTON*  MOCLDY    60  48  64 SW6       29.98F
MARTINSVILLE   CLOUDY    58  43  58 W5        30.02S
ROANOKE        LGT RAIN  56  46  69 SW8       29.99F
BLACKSBURG     CLOUDY    49  47  91 W6        30.04S
DUBLIN*        LGT RAIN  53  49  88 W5        30.02F
MARION*        DRIZZLE   46  45  94 W10       30.07S
HILLSVILLE*    CLOUDY    50  46  86 NW8       30.01S
RICHLANDS*     RAIN      46  44  95 CALM      30.04F
WISE*          RAIN      46  46 100 CALM      30.05S
ABINGDON*      LGT RAIN  47  47  98 W5        30.06F
$$

MDZ021>025-VAZ099-100-281900-
SOUTHERN MARYLAND AND THE DELMARVA PENINSULA

CITY           SKY/WX    TMP DP  RH WIND       PRES   REMARKS
PATUXENT RIVER CLOUDY    58  39  49 NW6       29.94F
BAY BRIDGE APT   N/A     55  37  50 CALM      29.94F
LEONARDTOWN    CLOUDY    59  37  44 W5        29.96F
DOVER          CLOUDY    57  44  60 W8        29.92F
GEORGETOWN     CLOUDY    57  41  55 W5        29.95F
EASTON         MOSUNNY   59  43  55 SW7       29.98F
CAMBRIDGE      CLOUDY    59  41  51 SW3       29.94F
SALISBURY      CLOUDY    60  42  51 W7        29.95F
OCEAN CITY     CLOUDY    58  43  57 W12G18    29.95S
WALLOPS ISLAND PTSUNNY   60  48  64 NW12G17   29.96F
ACCOMACK*      CLOUDY    61  48  63 SW10G16   29.95F
$$

NCZ012>017-030>032-281900-
NORTH CENTRAL AND EASTERN NORTH CAROLINA

CITY           SKY/WX    TMP DP  RH WIND       PRES   REMARKS
ROANOKE RAPIDS CLOUDY    63  54  72 SW14      30.00F
RALEIGH        CLOUDY    59  53  80 W8        30.02F
ELIZABETH CITY CLOUDY    68  54  60 SW10      30.00F
AHOSKIE*       CLOUDY    63  55  73 SW3       30.00F
EDENTON*       CLOUDY    64  53  67 W9        30.02F
CURRITUCK*     CLOUDY    64  52  63 SW10      30.00F
KILL DEVIL HLS CLOUDY    63  57  81 W8        30.01R
MANTEO         PTSUNNY   63  55  77 W10       30.02F
CAPE HATTERAS  CLOUDY    63  59  87 W9        30.03F
TARBORO*       LGT RAIN  63  56  76 SW6       30.03F
GOLDSBORO      CLOUDY    63  62  97 SW12      30.02F
WASHINGTON     CLOUDY    64  55  70 W6        30.03F
GREENVILLE     DRIZZLE   64  55  72 SW7       30.04F
NEW BERN       MOSUNNY   73  57  57 W8        30.03F
WILMINGTON     SUNNY     73  59  61 SW18G32   30.03F
$$

VAZ048-281900-
ELSEWHERE

CITY           SKY/WX    TMP DP  RH WIND       PRES   REMARKS
HARRISBURG PA  CLOUDY    45  41  86 CALM      29.92F
BALTIMORE      CLOUDY    58  42  55 NW10      29.93F
ANNAPOLIS      CLOUDY    54  40  59 NW5       29.93F
ANDREWS AFB    PTSUNNY   57  40  51 NW5       29.94F
PHILADELPHIA   CLOUDY    53  41  63 SW7       29.93F
HENDERSON NC   CLOUDY    61  52  72 SW8       30.00F
GREENSBORO     LGT RAIN  57  52  83 SW10      29.99F
ROCKY MOUNT    CLOUDY    62  57  83 SW7       30.02F
$$

VAZ100-281900-
MARINE

STATION/POSITION TIME  TEMP    WIND        PRES    WAVE   SWELL
                       AIR SEA DIR/SP/G            HT/PER HT/PER
                 (UTC) (F)     (DEG/KT/KT) (MB)    (FT/S) (FT/S)
CAPE MAY NJ      1800   48 47  260/  7/  8 1013.6F
LEWES DE         1800   56 44  260/  7/ 12 1013.8F
15NM E FENWICK I 1800   49 46              1014.1S   4/ 5
OCEAN-CITY-INLET 1800   57 45  290/  8/ 10 1014.0F
WACHAPREAGUE VA  1800   61 48  250/  6/ 11 1014.2F
THOMAS POINT MD  1800   51 43  180/  8/  8 1015.1F
GOOSES REEF MD   1800   49     VRB  2/  4  1013.2F
COVE POINT MD    1800   56     280/  5/  5 1013.8F
SOLOMONS ISLAND  1800      44                N/A
BISHOPS HEAD MD  1800   57 46  340/  3/  6 1013.9F
PINEY POINT MD   1800          360/  4/  5   N/A
POTOMAC MD       1800   53     350/  4/  6 1013.6F
CAMBRIDGE MD     1800   56 42  260/  5/  6 1013.7F
LEWISETTA VA     1800   56 45  360/  5/ 10 1013.9S
RAPPAHANNOCK LGT 1800          210/ 14/ 15 1014.7F
STINGRAY PT      1800   59     260/ 12/ 17 1014.8F
YORK RVR RNG VA  1800   59     250/ 12/ 14 1013.8F
YORKTOWN VA      1800   63 46  250/ 10/ 12 1014.2S
JAMESTOWN VA     1800   60     280/  8/ 14   N/A
DOMINION TERM VA 1800   58     250/ 14/ 17 1014.9R
KIPTOPEKE VA     1800      51  240/ 10/ 12   N/A
CHES BAY BRIDGE  1800   60 46  220/ 22/ 25 1013.8F
CAPE HENRY VA    1800   64     240/  8/ 19 1013.4F
CHESAPEAKE LGHT  1700   51     210/ 16/ 17 1016.1F
WILLOUBY STN VA  1800   57     230/ 14/ 15 1015.4F
S CRANEY ISL VA  1800          250/ 10/ 14 1014.8F
CAPE HENRY BUOY  1800      47                N/A     2/13   2/13
1ST LANDING BUOY 1800   56     240/ 10/ 12 1014.7F
CAPE CHARLES BUO 1800      48                N/A     2/14   2/14
64NM E OF VA BCH 1800   55 53  210/ 12/ 12 1015.1F   3/12   2/12
DUCK PIER NC     1800   60 49  250/ 11/ 14 1015.6R
44100 DUCK FRF   1800      51                N/A     2/13   2/13
44056 DUCK FRF   1800      48                N/A     2/14   2/14
OREGON INLET NC  1800   55 53  210/ 11/ 11 1016.3F
HATTERAS NC      1800   63 54  240/  7/  9 1017.3F
DIAMOND SHLS NC  1800   70                 1016.8F   5/14
CAPE LOOKOUT NC  1700   65     250/ 11/ 13 1017.7F
$$



USA.gov is the U.S. government's official web portal to all federal, state and local government web resources and services.